Regional Weather Roundup
Issued by NWS Newport/Morehead, NC

Current Version | Previous Version | Graphics & Text | Print | Product List | Glossary Off
Versions: 1 2 3 4 5 6 7 8 9 10 11 12 13 14 15 16 17 18 19 20 21 22 23 24 25 26 27 28 29 30 31 32 33 34 35 36 37 38 39 40 41 42 43 44 45 46 47 48 49 50

000
ASUS42 KMHX 261925
RWRMHX
WEATHER ROUNDUP FOR EASTERN NORTH CAROLINA
NATIONAL WEATHER SERVICE NEWPORT/MOREHEAD CITY NC
300 PM EDT FRI AUG 26 2016

NOTE: "FAIR" INDICATES FEW OR NO CLOUDS BELOW 12,000 FEET
WITH NO SIGNIFICANT WEATHER AND/OR OBSTRUCTIONS TO VISIBILITY

NCZ015>017-031-032-045>047-102-103-262000-
NORTH COAST

CITY           SKY/WX    TMP DP  RH WIND       PRES   REMARKS
EDENTON        SUNNY     92  70  49 SW5       30.06F
ELIZABETH CITY SUNNY     91  72  53 VRB6      30.06F
KITTY HAWK     CLEAR     95  78  57 S3        30.05F HX 110
MANTEO         SUNNY     85  73  66 S13       30.06F

$$

NCZ045>047-081-094-103-104-262000-
CENTRAL COAST

CITY           SKY/WX    TMP DP  RH WIND       PRES   REMARKS
FRISCO         SUNNY     87  71  58 S6        30.08F

$$

NCZ095-097-098-100-101-262000-
SOUTHERN COAST

CITY           SKY/WX    TMP DP  RH WIND       PRES   REMARKS
BEAUFORT       SUNNY     85  72  65 S9        30.08F
CEDAR ISLAND   NOT AVBL
JACKSONVILLE   SUNNY     89  72  56 SE7       30.07F
PINEY ISLAND   NOT AVBL
WILMINGTON     SUNNY     88  71  57 VRB7      30.08F


$$

NCZ011>013-027>030-043-044-078>080-089-090>093-098-262000-
COASTAL PLAIN

CITY           SKY/WX    TMP DP  RH WIND       PRES   REMARKS
AHOSKIE        SUNNY     91  74  57 NE3       30.05F HX 100
CLINTON        SUNNY     93  74  53 E5        30.06F HX 103
ELIZABETHTOWN  MOSUNNY   93  71  48 S5        30.06F
GOLDSBORO      MOSUNNY   94  72  49 VRB6      30.04F HX 101
GREENVILLE     PTSUNNY   95  73  49 S6        30.07F HAZE    HX 105
HAVELOCK       MOSUNNY   90  72  55 VRB5      30.08F
KENANSVILLE    SUNNY     91  73  55 S3        30.06F HX 100
KINSTON        NOT AVBL
NEW BERN       SUNNY     90  73  57 SE5       30.07F
RICHLANDS      MOSUNNY   89  73  59 E6        30.07F
ROCKY MOUNT    MOSUNNY   95  74  50 NE6       30.05F HX 105
WASHINGTON     SUNNY     90  74  58 SE3       30.06F
WHITEVILLE     MOSUNNY   91  71  52 E8        30.06F

$$

AMZ130-135-150-152-154-156-158-170-250-252-270-ANZ085-086-088-633-658-670-262000-
MARINE OBSERVATIONS

STATION/POSITION TIME  TEMP    WIND        PRES    WAVE   SWELL
                       AIR SEA DIR/SP/G            HT/PER HT/PER
                 (UTC) (F)     (DEG/KT/KT) (MB)    (FT/S) (FT/S)
CHESAPEAKE LIGHT NOT AVBL
64 E VA BEACH    1850   81 81  220/ 12/ 14 1017.8    3/ 8   2/ 8
DUCK             1900   85 78  190/  6/  7 1017.4
2 E DUCK         1811      80                N/A     2/ 8
OREGON INLET     1900   83 81  180/ 10/ 12 1018.1
13E OREGON INLT  1900      79                N/A     2/ 7   2/ 7
HATTERAS CG      1900   85 81  170/  5/  7 1018.4
DIAMOND BUOY     1850   84 87   CALM  /  2 1018.8    2/ 7   2/ 7
CAPE LOOKOUT     1900   83     160/  6/  7 1018.5
BEAUFORT LAB     1900   83 81  190/  7/  9 1018.0
30 SE NEW RVR IN 1908   83 85   90/  4/  6 1018.5
30 SE NEW RVR IN 1825      86                N/A     2/ 8
27 SE WRIGHTSVLE 1908   83 84   90/  4/ 10 1018.6
5 SE WRIGHTSVLE  1908   83 84  120/  6/  8 1019.6
225 S CAPE HAT   1850   82 84   60/ 19/ 23 1016.1    7/ 6   2/10
41 SE CHARLESTON 1850   82 84   50/ 12/ 16 1017.4    2/ 6   2/ 9

$$




USA.gov is the U.S. government's official web portal to all federal, state and local government web resources and services.